Weather History for Green Bay, WI

Change the Weather History Date:

Thursday, January 9, 2014

  Actual Average Record
Temperature  
Mean Temperature 1 °F 17 °F  
Max Temperature 23 °F 24 °F 53 °F (2002)
Min Temperature -21 °F 9 °F -27 °F (1977)
Degree Days  
Heating Degree Days 64 48  
Month to date heating degree days 586 432  
Since 1 July heating degree days 3741 3522  
Cooling Degree Days 0 0  
Month to date cooling degree days 0 0  
Year to date cooling degree days 0 0  
Moisture  
Dew Point -2 °F    
Average Humidity 73    
Maximum Humidity 91    
Minimum Humidity 55    
Precipitation  
Precipitation T in 0.04 in 1.78 in (1889)
Month to date precipitation T 0.35  
Year to date precipitation T 0.35  
Snow  
Snow 0.00 in 0.40 in 17.80 in (1889)
Month to date snowfall T 3.6  
Since 1 July snowfall 27.6 20.9  
Snow Depth 8.00 in    
Sea Level Pressure  
Sea Level Pressure 30.36 in    
Wind  
Wind Speed 3 mph (South)    
Max Wind Speed 10 mph    
Max Gust Speed 14 mph    
Visibility 8 miles    
Events      
T = Trace of Precipitation, MM = Missing Value Source: NWS Daily Summary

Daily Weather History Graph

Daily Weather History Graph

Search for Another Location

Airport:

Trip Planner

Search our weather history database for the weather conditions in past years. The results will help you decide how hot, cold, wet, or windy it might be!

Date:

Astronomy

Jan. 09, 2014 Rise Set
Actual Time 7:28 AM CST 4:31 PM CST
Civil Twilight 6:55 AM CST 5:04 PM CST
Nautical Twilight 6:18 AM CST 5:40 PM CST
Astronomical Twilight 5:43 AM CST 6:16 PM CST
Moon 12:03 PM CST (1/9) 1:29 AM CST (1/9)
Length of Visible Light 10h 09m
Length of Day
9h 03m
Waxing Gibbous, 66% of the Moon is Illuminated
Jan 9
Waxing Gibbous
Jan 15
Full
Jan 23
Last Quarter
Jan 30
New
Feb 6
First Quarter

Hourly Weather History & Observations

Time (CST) Temp. Windchill Dew Point Humidity Pressure Visibility Wind Dir Wind Speed Gust Speed Precip Events Conditions
12:53 AM -11.9 °F - -15.0 °F 86% 30.55 in 10.0 mi Calm Calm - N/A   Clear
1:53 AM -11.9 °F -23.8 °F -17.0 °F 78% 30.56 in 10.0 mi SSW 4.6 mph - N/A   Clear
2:53 AM -18.0 °F -28.5 °F -22.0 °F 82% 30.57 in 10.0 mi SW 3.5 mph - N/A   Clear
3:53 AM -16.1 °F -28.6 °F -22.0 °F 74% 30.55 in 10.0 mi SW 4.6 mph - N/A   Clear
4:53 AM -18.0 °F - -24.0 °F 74% 30.54 in 10.0 mi North - - N/A   Clear
5:53 AM -18.0 °F -28.5 °F -24.0 °F 74% 30.54 in 10.0 mi South 3.5 mph - N/A   Clear
6:53 AM -18.9 °F -32.0 °F -20.9 °F 91% 30.53 in 10.0 mi South 4.6 mph - N/A   Clear
7:53 AM -16.1 °F - -20.9 °F 79% 30.52 in 8.0 mi North - - N/A   Clear
8:53 AM -15.0 °F -25.0 °F -18.0 °F 86% 30.53 in 8.0 mi SSE 3.5 mph - N/A   Clear
9:53 AM -8.0 °F - -11.0 °F 86% 30.53 in 5.0 mi Calm Calm - N/A   Clear
10:53 AM -2.9 °F -15.0 °F -9.0 °F 75% 30.48 in 7.0 mi South 5.8 mph - N/A   Clear
11:53 AM 1.9 °F - -6.0 °F 69% 30.43 in 8.0 mi Calm Calm - N/A   Clear
12:53 PM 8.1 °F - -5.1 °F 55% 30.38 in 9.0 mi Calm Calm - N/A   Clear
1:53 PM 10.9 °F - -0.0 °F 61% 30.35 in 8.0 mi Calm Calm - N/A   Clear
2:53 PM 12.9 °F 5.2 °F 3.0 °F 65% 30.35 in 8.0 mi South 4.6 mph - N/A   Clear
3:28 PM 12.0 °F - 3.9 °F 70% 30.28 in 8.0 mi Calm Calm - N/A   Mostly Cloudy
3:53 PM 12.9 °F - 3.9 °F 67% 30.33 in 8.0 mi Calm Calm - N/A   Overcast
5:53 PM 15.1 °F 7.7 °F 7.0 °F 70% 30.29 in 8.0 mi SSE 4.6 mph - N/A   Overcast
6:31 PM 14.0 °F - 6.1 °F 71% 30.21 in 9.0 mi Calm Calm - N/A   Scattered Clouds
6:53 PM 12.9 °F - 6.1 °F 74% 30.27 in 8.0 mi Calm Calm - N/A   Clear
7:53 PM 12.9 °F - 7.0 °F 77% 30.25 in 7.0 mi Calm Calm - N/A   Overcast
8:53 PM 16.0 °F - 10.9 °F 81% 30.22 in 7.0 mi Calm Calm - N/A   Overcast
9:10 PM 17.1 °F 11.7 °F 10.9 °F 77% 30.16 in 7.0 mi SSW 3.5 mph - N/A   Overcast
9:49 PM 21.2 °F 12.6 °F 17.6 °F 86% 30.15 in 7.0 mi South 6.9 mph - N/A   Overcast
9:53 PM 21.0 °F 12.4 °F 17.1 °F 85% 30.20 in 7.0 mi South 6.9 mph - N/A   Overcast
10:00 PM 21.9 °F 11.7 °F 18.0 °F 85% 30.14 in 7.0 mi South 9.2 mph - N/A   Overcast
10:53 PM 23.0 °F 14.7 °F 19.0 °F 85% 30.17 in 6.0 mi South 6.9 mph - N/A   Overcast
11:18 PM 23.0 °F 14.7 °F 19.9 °F 88% 30.11 in 5.0 mi SSW 6.9 mph - N/A   Overcast
11:33 PM 23.0 °F 13.9 °F 19.9 °F 88% 30.11 in 5.0 mi South 8.1 mph - N/A   Overcast
11:53 PM 23.0 °F 13.9 °F 19.9 °F 88% 30.15 in 4.0 mi SSW 8.1 mph - N/A   Overcast